Location: Observatoire de Paris
(48.8363°N, 2.3365°E)
Time: 08:42:28
(UTC+01:00)

Courier 1B - Visible Passes

Search period start: 24 July 2021 00:00
Search period end: 03 August 2021 00:00
Orbit: 962 x 1209 km, 28.3° (Epoch: 23 July)

Date Brightness Start Highest point End Pass type
(mag) Time Alt. Az. Time Alt. Az. Time Alt. Az.
27 Jul 9.4 22:20:49 10° SSW 22:23:17 12° S 22:23:17 12° S visible
28 Jul 9.5 21:27:54 10° S 21:30:14 12° SSE 21:32:32 10° SSE visible
28 Jul 9.6 23:19:27 10° SSW 23:19:58 11° SSW 23:19:58 11° SSW visible
29 Jul 9.3 22:25:45 10° SSW 22:29:26 14° S 22:29:37 14° S visible
30 Jul 9.4 21:32:15 10° SSW 21:35:54 14° S 21:39:10 11° SSE visible
30 Jul 9.7 23:25:29 10° SW 23:26:03 11° SSW 23:26:03 11° SSW visible
31 Jul 9.4 22:31:24 10° SW 22:35:07 14° S 22:35:31 14° S visible
01 Aug 9.4 21:37:35 10° SSW 21:41:36 15° S 21:44:56 11° SSE visible
02 Aug 9.5 22:37:46 10° SW 22:40:47 13° SSW 22:41:11 13° S visible
